Terminal Aerodrome Forecast
Issued by NWS Pittsburgh, PA

Current Version | Previous Version | Graphics & Text | Print | Product List | Glossary On
Versions: 1 2 3 4 5 6 7 8 9 10 11 12 13 14 15 16 17 18 19 20 21 22 23 24 25 26 27 28 29 30 31 32 33 34 35
785
FTUS41 KPBZ 260003 AAA
TAFPIT
TAF AMD
KPIT 260003Z 2600/2706 24005KT P6SM VCSH OVC050
      TEMPO 2600/2602 BKN025
     FM260200 24005KT P6SM -SHRA OVC025
     FM260400 24005KT 5SM -SHRA OVC015
     FM260800 26008KT P6SM VCSH OVC010
     FM262000 28009KT P6SM BKN025
     FM262200 28008KT P6SM BKN090=

USA.gov is the U.S. government's official web portal to all federal, state and local government web resources and services.